date,time,SUV Intensity [MED/Hr],UV Index,Daily total [MED],Since Last [MED]
07/04/2023,00:04:57,0.000,0.0,0.0,0.0
07/04/2023,00:05:57,0.000,0.0,0.0,0.0
07/04/2023,00:06:58,0.000,0.0,0.0,0.0
07/04/2023,00:07:58,0.000,0.0,0.0,0.0
07/04/2023,00:08:57,0.000,0.0,0.0,0.0
07/04/2023,00:09:57,0.000,0.0,0.0,0.0
07/04/2023,00:10:58,0.000,0.0,0.0,0.0
07/04/2023,00:11:57,0.000,0.0,0.0,0.0
07/04/2023,00:12:57,0.000,0.0,0.0,0.0
07/04/2023,00:13:57,0.000,0.0,0.0,0.0
07/04/2023,00:14:58,0.000,0.0,0.0,0.0
07/04/2023,00:15:57,0.000,0.0,0.0,0.0
07/04/2023,00:16:57,0.000,0.0,0.0,0.0
07/04/2023,00:17:57,0.000,0.0,0.0,0.0
07/04/2023,00:18:57,0.000,0.0,0.0,0.0
07/04/2023,00:19:57,0.000,0.0,0.0,0.0
07/04/2023,00:20:57,0.000,0.0,0.0,0.0
07/04/2023,00:21:57,0.000,0.0,0.0,0.0
07/04/2023,00:22:58,0.000,0.0,0.0,0.0
07/04/2023,00:23:57,-0.001,0.0,0.0,0.0
07/04/2023,00:24:58,0.000,0.0,0.0,0.0
07/04/2023,00:25:58,0.000,0.0,0.0,0.0
07/04/2023,00:26:57,0.000,0.0,0.0,0.0
07/04/2023,00:27:57,0.000,0.0,0.0,0.0
07/04/2023,00:28:57,0.000,0.0,0.0,0.0
07/04/2023,00:29:57,0.000,0.0,0.0,0.0
07/04/2023,00:30:57,0.000,0.0,0.0,0.0
07/04/2023,00:31:57,0.000,0.0,0.0,0.0
07/04/2023,00:32:58,0.000,0.0,0.0,0.0
07/04/2023,00:33:58,0.000,0.0,0.0,0.0
07/04/2023,00:34:58,0.000,0.0,0.0,0.0
07/04/2023,00:35:58,0.000,0.0,0.0,0.0
07/04/2023,00:36:58,0.000,0.0,0.0,0.0
07/04/2023,00:37:58,0.000,0.0,0.0,0.0
07/04/2023,00:38:58,0.000,0.0,0.0,0.0
07/04/2023,00:39:58,0.000,0.0,0.0,0.0
07/04/2023,00:40:58,0.000,0.0,0.0,0.0
07/04/2023,00:41:57,0.000,0.0,0.0,0.0
07/04/2023,00:42:57,0.000,0.0,0.0,0.0
07/04/2023,00:43:57,0.000,0.0,0.0,0.0
07/04/2023,00:44:58,0.000,0.0,0.0,0.0
07/04/2023,00:45:58,0.000,0.0,0.0,0.0
07/04/2023,00:46:57,0.000,0.0,0.0,0.0
07/04/2023,00:47:57,0.000,0.0,0.0,0.0
07/04/2023,00:48:57,0.000,0.0,0.0,0.0
07/04/2023,00:49:58,0.000,0.0,0.0,0.0
07/04/2023,00:50:58,0.000,0.0,0.0,0.0
07/04/2023,00:51:57,0.000,0.0,0.0,0.0
07/04/2023,00:52:58,0.000,0.0,0.0,0.0
07/04/2023,00:53:58,0.000,0.0,0.0,0.0
07/04/2023,00:54:58,0.000,0.0,0.0,0.0
07/04/2023,00:55:58,0.000,0.0,0.0,0.0
07/04/2023,00:56:58,0.000,0.0,0.0,0.0
07/04/2023,00:57:57,0.000,0.0,0.0,0.0
07/04/2023,00:58:58,0.000,0.0,0.0,0.0
07/04/2023,00:59:57,0.000,0.0,0.0,0.0
07/04/2023,01:00:57,0.000,0.0,0.0,0.0
07/04/2023,01:01:57,0.000,0.0,0.0,0.0
07/04/2023,01:02:57,0.000,0.0,0.0,0.0
07/04/2023,01:03:57,0.000,0.0,0.0,0.0
07/04/2023,01:04:58,0.000,0.0,0.0,0.0
07/04/2023,01:05:57,0.000,0.0,0.0,0.0
07/04/2023,01:06:57,0.000,0.0,0.0,0.0
07/04/2023,01:07:57,0.000,0.0,0.0,0.0
07/04/2023,01:08:57,0.000,0.0,0.0,0.0
07/04/2023,01:09:58,0.000,0.0,0.0,0.0
07/04/2023,01:10:58,0.000,0.0,0.0,0.0
07/04/2023,01:11:58,0.000,0.0,0.0,0.0
07/04/2023,01:12:58,0.001,0.0,0.0,0.0
07/04/2023,01:13:58,0.000,0.0,0.0,0.0
07/04/2023,01:14:58,0.000,0.0,0.0,0.0
07/04/2023,01:15:58,0.000,0.0,0.0,0.0
07/04/2023,01:16:57,0.000,0.0,0.0,0.0
07/04/2023,01:17:57,0.000,0.0,0.0,0.0
07/04/2023,01:18:58,0.000,0.0,0.0,0.0
07/04/2023,01:19:58,0.000,0.0,0.0,0.0
07/04/2023,01:20:58,0.000,0.0,0.0,0.0
07/04/2023,01:21:58,0.000,0.0,0.0,0.0
07/04/2023,01:22:58,0.000,0.0,0.0,0.0
07/04/2023,01:23:58,0.000,0.0,0.0,0.0
07/04/2023,01:24:57,0.000,0.0,0.0,0.0
07/04/2023,01:25:58,0.000,0.0,0.0,0.0
07/04/2023,01:26:58,0.000,0.0,0.0,0.0
07/04/2023,01:27:58,0.000,0.0,0.0,0.0
07/04/2023,01:28:58,0.001,0.0,0.0,0.0
07/04/2023,01:29:58,0.000,0.0,0.0,0.0
07/04/2023,01:30:57,0.000,0.0,0.0,0.0
07/04/2023,01:31:58,0.000,0.0,0.0,0.0
07/04/2023,01:32:58,0.000,0.0,0.0,0.0
07/04/2023,01:33:57,0.000,0.0,0.0,0.0
07/04/2023,01:34:58,0.000,0.0,0.0,0.0
07/04/2023,01:35:58,0.000,0.0,0.0,0.0
07/04/2023,01:36:56,0.000,0.0,0.0,0.0
07/04/2023,01:37:58,0.000,0.0,0.0,0.0
07/04/2023,01:38:58,0.000,0.0,0.0,0.0
07/04/2023,01:39:58,0.000,0.0,0.0,0.0
07/04/2023,01:40:58,0.000,0.0,0.0,0.0
07/04/2023,01:41:58,0.000,0.0,0.0,0.0
07/04/2023,01:42:58,0.000,0.0,0.0,0.0
07/04/2023,01:43:57,0.000,0.0,0.0,0.0
07/04/2023,01:44:57,0.000,0.0,0.0,0.0
07/04/2023,01:45:58,0.000,0.0,0.0,0.0
07/04/2023,01:46:57,0.000,0.0,0.0,0.0
07/04/2023,01:47:57,0.000,0.0,0.0,0.0
07/04/2023,01:48:58,0.000,0.0,0.0,0.0
07/04/2023,01:49:58,0.000,0.0,0.0,0.0
07/04/2023,01:50:58,0.000,0.0,0.0,0.0
07/04/2023,01:51:58,0.000,0.0,0.0,0.0
07/04/2023,01:52:58,0.000,0.0,0.0,0.0
07/04/2023,01:53:58,0.000,0.0,0.0,0.0
07/04/2023,01:54:57,0.000,0.0,0.0,0.0
07/04/2023,01:55:58,0.000,0.0,0.0,0.0
07/04/2023,01:56:57,0.000,0.0,0.0,0.0
07/04/2023,01:57:58,0.000,0.0,0.0,0.0
07/04/2023,01:58:58,0.000,0.0,0.0,0.0
07/04/2023,01:59:58,0.000,0.0,0.0,0.0
07/04/2023,02:00:57,-0.001,0.0,0.0,0.0
07/04/2023,02:01:58,0.000,0.0,0.0,0.0
07/04/2023,02:02:58,0.000,0.0,0.0,0.0
07/04/2023,02:03:58,0.000,0.0,0.0,0.0
07/04/2023,02:04:58,0.000,0.0,0.0,0.0
07/04/2023,02:05:58,0.000,0.0,0.0,0.0
07/04/2023,02:06:58,0.000,0.0,0.0,0.0
07/04/2023,02:07:58,0.000,0.0,0.0,0.0
07/04/2023,02:08:58,0.000,0.0,0.0,0.0
07/04/2023,02:09:58,0.000,0.0,0.0,0.0
07/04/2023,02:10:58,0.001,0.0,0.0,0.0
07/04/2023,02:11:58,0.000,0.0,0.0,0.0
07/04/2023,02:12:58,0.001,0.0,0.0,0.0
07/04/2023,02:13:58,0.000,0.0,0.0,0.0
07/04/2023,02:14:58,0.000,0.0,0.0,0.0
07/04/2023,02:15:58,0.000,0.0,0.0,0.0
07/04/2023,02:16:58,0.000,0.0,0.0,0.0
07/04/2023,02:17:58,0.000,0.0,0.0,0.0
07/04/2023,02:18:58,0.001,0.0,0.0,0.0
07/04/2023,02:19:58,0.001,0.0,0.0,0.0
07/04/2023,02:20:57,0.001,0.0,0.0,0.0
07/04/2023,02:21:58,0.000,0.0,0.0,0.0
07/04/2023,02:22:58,0.000,0.0,0.0,0.0
07/04/2023,02:23:57,0.000,0.0,0.0,0.0
07/04/2023,02:24:58,0.001,0.0,0.0,0.0
07/04/2023,02:25:59,0.000,0.0,0.0,0.0
07/04/2023,02:26:57,0.000,0.0,0.0,0.0
07/04/2023,02:27:58,0.001,0.0,0.0,0.0
07/04/2023,02:28:58,0.001,0.0,0.0,0.0
07/04/2023,02:29:58,0.001,0.0,0.0,0.0
07/04/2023,02:30:58,0.000,0.0,0.0,0.0
07/04/2023,02:31:58,0.000,0.0,0.0,0.0
07/04/2023,02:32:58,0.000,0.0,0.0,0.0
07/04/2023,02:33:58,0.001,0.0,0.0,0.0
07/04/2023,02:34:58,0.000,0.0,0.0,0.0
07/04/2023,02:35:58,0.001,0.0,0.0,0.0
07/04/2023,02:36:58,0.000,0.0,0.0,0.0
07/04/2023,02:37:58,0.001,0.0,0.0,0.0
07/04/2023,02:38:58,0.001,0.0,0.0,0.0
07/04/2023,02:39:58,0.001,0.0,0.0,0.0
07/04/2023,02:40:58,0.001,0.0,0.0,0.0
07/04/2023,02:41:58,0.000,0.0,0.0,0.0
07/04/2023,02:42:58,0.001,0.0,0.0,0.0
07/04/2023,02:43:58,0.000,0.0,0.0,0.0
07/04/2023,02:44:58,0.001,0.0,0.0,0.0
07/04/2023,02:45:58,0.001,0.0,0.0,0.0
07/04/2023,02:46:58,0.001,0.0,0.0,0.0
07/04/2023,02:47:58,0.000,0.0,0.0,0.0
07/04/2023,02:48:58,0.001,0.0,0.0,0.0
07/04/2023,02:49:58,0.001,0.0,0.0,0.0
07/04/2023,02:50:58,0.001,0.0,0.0,0.0
07/04/2023,02:51:58,0.000,0.0,0.0,0.0
07/04/2023,02:52:58,0.001,0.0,0.0,0.0
07/04/2023,02:53:58,0.001,0.0,0.0,0.0
07/04/2023,02:54:58,0.001,0.0,0.0,0.0
07/04/2023,02:55:57,0.000,0.0,0.0,0.0
07/04/2023,02:56:57,0.001,0.0,0.0,0.0
07/04/2023,02:57:57,0.001,0.0,0.0,0.0
07/04/2023,02:58:57,0.001,0.0,0.0,0.0
07/04/2023,02:59:58,0.000,0.0,0.0,0.0
07/04/2023,03:00:57,0.001,0.0,0.0,0.0
07/04/2023,03:01:58,0.001,0.0,0.0,0.0
07/04/2023,03:02:58,0.001,0.0,0.0,0.0
07/04/2023,03:03:58,0.000,0.0,0.0,0.0
07/04/2023,03:04:58,0.001,0.0,0.0,0.0
07/04/2023,03:05:57,0.001,0.0,0.0,0.0
07/04/2023,03:06:58,-0.001,0.0,0.0,0.0
07/04/2023,03:07:57,0.001,0.0,0.0,0.0
07/04/2023,03:08:58,0.001,0.0,0.0,0.0
07/04/2023,03:09:58,0.000,0.0,0.0,0.0
07/04/2023,03:10:58,0.001,0.0,0.0,0.0
07/04/2023,03:11:58,0.000,0.0,0.0,0.0
07/04/2023,03:12:58,0.001,0.0,0.0,0.0
07/04/2023,03:13:58,0.001,0.0,0.0,0.0
07/04/2023,03:14:58,0.001,0.0,0.0,0.0
07/04/2023,03:15:58,-0.001,0.0,0.0,0.0
07/04/2023,03:16:58,0.001,0.0,0.0,0.0
07/04/2023,03:17:58,0.001,0.0,0.0,0.0
07/04/2023,03:18:57,0.001,0.0,0.0,0.0
07/04/2023,03:19:58,0.000,0.0,0.0,0.0
07/04/2023,03:20:58,0.001,0.0,0.0,0.0
07/04/2023,03:21:58,0.000,0.0,0.0,0.0
07/04/2023,03:22:57,0.001,0.0,0.0,0.0
07/04/2023,03:23:58,0.000,0.0,0.0,0.0
07/04/2023,03:24:57,0.001,0.0,0.0,0.0
07/04/2023,03:25:58,0.001,0.0,0.0,0.0
07/04/2023,03:26:58,0.000,0.0,0.0,0.0
07/04/2023,03:27:58,0.000,0.0,0.0,0.0
07/04/2023,03:28:58,0.000,0.0,0.0,0.0
07/04/2023,03:29:58,0.000,0.0,0.0,0.0
07/04/2023,03:30:58,0.001,0.0,0.0,0.0
07/04/2023,03:31:58,0.001,0.0,0.0,0.0
07/04/2023,03:32:57,0.001,0.0,0.0,0.0
07/04/2023,03:33:58,0.001,0.0,0.0,0.0
07/04/2023,03:34:58,0.001,0.0,0.0,0.0
07/04/2023,03:35:58,0.000,0.0,0.0,0.0
07/04/2023,03:36:58,0.001,0.0,0.0,0.0
07/04/2023,03:37:58,0.001,0.0,0.0,0.0
07/04/2023,03:38:58,0.001,0.0,0.0,0.0
07/04/2023,03:39:58,0.000,0.0,0.0,0.0
07/04/2023,03:40:58,0.001,0.0,0.0,0.0
07/04/2023,03:41:58,0.001,0.0,0.0,0.0
07/04/2023,03:42:58,0.001,0.0,0.0,0.0
07/04/2023,03:43:58,0.001,0.0,0.0,0.0
07/04/2023,03:44:58,0.001,0.0,0.0,0.0
07/04/2023,03:45:59,0.001,0.0,0.0,0.0
07/04/2023,03:46:58,0.001,0.0,0.0,0.0
07/04/2023,03:47:58,0.001,0.0,0.0,0.0
07/04/2023,03:48:58,0.000,0.0,0.0,0.0
07/04/2023,03:49:58,0.001,0.0,0.0,0.0
07/04/2023,03:50:58,0.000,0.0,0.0,0.0
07/04/2023,03:51:58,0.001,0.0,0.0,0.0
07/04/2023,03:52:58,0.001,0.0,0.0,0.0
07/04/2023,03:53:58,0.001,0.0,0.0,0.0
07/04/2023,03:54:58,0.001,0.0,0.0,0.0
07/04/2023,03:55:57,0.001,0.0,0.0,0.0
07/04/2023,03:56:58,0.001,0.0,0.0,0.0
07/04/2023,03:57:58,0.001,0.0,0.0,0.0
07/04/2023,03:58:58,0.001,0.0,0.0,0.0
07/04/2023,03:59:57,0.001,0.0,0.0,0.0
07/04/2023,04:00:58,0.000,0.0,0.0,0.0
07/04/2023,04:01:58,0.001,0.0,0.0,0.0
07/04/2023,04:02:58,0.001,0.0,0.0,0.0
07/04/2023,04:03:59,0.001,0.0,0.0,0.0
07/04/2023,04:04:58,0.000,0.0,0.0,0.0
07/04/2023,04:05:58,0.001,0.0,0.0,0.0
07/04/2023,04:06:57,0.001,0.0,0.0,0.0
07/04/2023,04:07:58,0.000,0.0,0.0,0.0
07/04/2023,04:08:58,0.001,0.0,0.0,0.0
07/04/2023,04:09:58,0.000,0.0,0.0,0.0
07/04/2023,04:10:58,0.001,0.0,0.0,0.0
07/04/2023,04:11:58,0.001,0.0,0.0,0.0
07/04/2023,04:12:58,0.001,0.0,0.0,0.0
07/04/2023,04:13:58,0.001,0.0,0.0,0.0
07/04/2023,04:14:58,0.001,0.0,0.0,0.0
07/04/2023,04:15:57,0.000,0.0,0.0,0.0
07/04/2023,04:16:58,0.001,0.0,0.0,0.0
07/04/2023,04:17:58,0.001,0.0,0.0,0.0
07/04/2023,04:18:58,0.001,0.0,0.0,0.0
07/04/2023,04:19:58,0.001,0.0,0.0,0.0
07/04/2023,04:20:58,0.001,0.0,0.0,0.0
07/04/2023,04:21:57,0.000,0.0,0.0,0.0
07/04/2023,04:22:57,0.001,0.0,0.0,0.0
07/04/2023,04:23:58,0.001,0.0,0.0,0.0
07/04/2023,04:24:57,0.001,0.0,0.0,0.0
07/04/2023,04:25:58,0.001,0.0,0.0,0.0
07/04/2023,04:26:58,0.001,0.0,0.0,0.0
07/04/2023,04:27:57,0.001,0.0,0.0,0.0
07/04/2023,04:28:57,0.001,0.0,0.0,0.0
07/04/2023,04:29:58,0.001,0.0,0.0,0.0
07/04/2023,04:30:57,0.000,0.0,0.0,0.0
07/04/2023,04:31:58,0.001,0.0,0.0,0.0
07/04/2023,04:32:57,0.000,0.0,0.0,0.0
07/04/2023,04:33:58,0.001,0.0,0.0,0.0
07/04/2023,04:34:58,0.001,0.0,0.0,0.0
07/04/2023,04:35:58,0.001,0.0,0.0,0.0
07/04/2023,04:36:58,0.001,0.0,0.0,0.0
07/04/2023,04:37:58,0.001,0.0,0.0,0.0
07/04/2023,04:38:58,0.001,0.0,0.0,0.0
07/04/2023,04:39:58,0.001,0.0,0.0,0.0
07/04/2023,04:40:58,0.001,0.0,0.0,0.0
07/04/2023,04:41:58,0.000,0.0,0.0,0.0
07/04/2023,04:42:58,0.001,0.0,0.0,0.0
07/04/2023,04:43:58,0.001,0.0,0.0,0.0
07/04/2023,04:45:01,0.001,0.0,0.0,0.0
07/04/2023,04:45:59,0.001,0.0,0.0,0.0
07/04/2023,04:46:58,0.001,0.0,0.0,0.0
07/04/2023,04:47:58,0.002,0.0,0.0,0.0
07/04/2023,04:48:58,0.000,0.0,0.0,0.0
07/04/2023,04:49:58,0.001,0.0,0.0,0.0
07/04/2023,04:50:58,0.001,0.0,0.0,0.0
07/04/2023,04:51:58,0.001,0.0,0.0,0.0
07/04/2023,04:52:58,0.001,0.0,0.0,0.0
07/04/2023,04:53:58,0.001,0.0,0.0,0.0
07/04/2023,04:54:57,0.001,0.0,0.0,0.0
07/04/2023,04:55:58,0.001,0.0,0.0,0.0
07/04/2023,04:56:58,0.001,0.0,0.0,0.0
07/04/2023,04:57:58,0.001,0.0,0.0,0.0
07/04/2023,04:58:58,0.001,0.0,0.0,0.0
07/04/2023,04:59:58,0.001,0.0,0.0,0.0
07/04/2023,05:00:58,0.001,0.0,0.0,0.0
07/04/2023,05:01:58,0.000,0.0,0.0,0.0
07/04/2023,05:02:58,0.001,0.0,0.0,0.0
07/04/2023,05:03:58,0.001,0.0,0.0,0.0
07/04/2023,05:04:58,0.001,0.0,0.0,0.0
07/04/2023,05:05:58,0.000,0.0,0.0,0.0
07/04/2023,05:06:58,0.001,0.0,0.0,0.0
07/04/2023,05:07:58,0.000,0.0,0.0,0.0
07/04/2023,05:08:58,0.001,0.0,0.0,0.0
07/04/2023,05:09:58,0.000,0.0,0.0,0.0
07/04/2023,05:10:58,0.001,0.0,0.0,0.0
07/04/2023,05:11:58,0.001,0.0,0.0,0.0
07/04/2023,05:12:57,0.000,0.0,0.0,0.0
07/04/2023,05:13:58,0.002,0.0,0.0,0.0
07/04/2023,05:14:58,0.001,0.0,0.0,0.0
07/04/2023,05:15:58,0.001,0.0,0.0,0.0
07/04/2023,05:16:58,0.001,0.0,0.0,0.0
07/04/2023,05:17:58,0.001,0.0,0.0,0.0
07/04/2023,05:18:58,0.002,0.0,0.0,0.0
07/04/2023,05:19:58,0.002,0.0,0.0,0.0
07/04/2023,05:20:58,0.001,0.0,0.0,0.0
07/04/2023,05:21:58,0.002,0.0,0.0,0.0
07/04/2023,05:22:58,0.002,0.0,0.0,0.0
07/04/2023,05:23:58,0.002,0.0,0.0,0.0
07/04/2023,05:24:58,0.002,0.0,0.0,0.0
07/04/2023,05:25:58,0.002,0.0,0.0,0.0
07/04/2023,05:26:58,0.002,0.0,0.0,0.0
07/04/2023,05:27:57,0.002,0.0,0.0,0.0
07/04/2023,05:28:58,0.002,0.0,0.0,0.0
07/04/2023,05:29:57,0.001,0.0,0.0,0.0
07/04/2023,05:30:58,0.003,0.0,0.0,0.0
07/04/2023,05:31:58,0.002,0.0,0.0,0.0
07/04/2023,05:32:58,0.002,0.0,0.0,0.0
07/04/2023,05:33:58,0.004,0.0,0.0,0.0
07/04/2023,05:34:58,0.003,0.0,0.0,0.0
07/04/2023,05:35:58,0.004,0.0,0.0,0.0
07/04/2023,05:36:58,0.003,0.0,0.0,0.0
07/04/2023,05:37:58,0.004,0.0,0.0,0.0
07/04/2023,05:38:58,0.004,0.0,0.0,0.0
07/04/2023,05:39:58,0.005,0.0,0.0,0.0
07/04/2023,05:40:58,0.005,0.0,0.0,0.0
07/04/2023,05:41:58,0.005,0.0,0.0,0.0
07/04/2023,05:42:59,0.005,0.0,0.0,0.0
07/04/2023,05:43:58,0.005,0.0,0.0,0.0
07/04/2023,05:44:58,0.007,0.0,0.0,0.0
07/04/2023,05:45:58,0.006,0.0,0.0,0.0
07/04/2023,05:46:59,0.007,0.0,0.0,0.0
07/04/2023,05:47:58,0.007,0.0,0.0,0.0
07/04/2023,05:48:58,0.007,0.0,0.0,0.0
07/04/2023,05:49:59,0.007,0.0,0.001,0.001
07/04/2023,05:50:58,0.008,0.0,0.001,0.0
07/04/2023,05:51:58,0.008,0.0,0.001,0.0
07/04/2023,05:52:58,0.009,0.0,0.001,0.0
07/04/2023,05:53:58,0.009,0.0,0.001,0.0
07/04/2023,05:54:58,0.010,0.0,0.001,0.0
07/04/2023,05:55:58,0.010,0.0,0.001,0.0
07/04/2023,05:56:58,0.010,0.0,0.002,0.001
07/04/2023,05:57:58,0.011,0.0,0.002,0.0
07/04/2023,05:58:58,0.011,0.0,0.002,0.0
07/04/2023,05:59:59,0.012,0.0,0.002,0.0
07/04/2023,06:00:58,0.013,0.0,0.002,0.0
07/04/2023,06:01:59,0.013,0.0,0.003,0.001
07/04/2023,06:02:58,0.014,0.0,0.003,0.0
07/04/2023,06:03:58,0.014,0.0,0.003,0.0
07/04/2023,06:04:58,0.014,0.0,0.003,0.0
07/04/2023,06:05:58,0.015,0.0,0.003,0.0
07/04/2023,06:06:58,0.015,0.0,0.004,0.001
07/04/2023,06:07:58,0.016,0.0,0.004,0.0
07/04/2023,06:08:58,0.016,0.0,0.004,0.0
07/04/2023,06:09:58,0.018,0.0,0.004,0.0
07/04/2023,06:10:58,0.018,0.0,0.005,0.001
07/04/2023,06:11:58,0.017,0.0,0.005,0.0
07/04/2023,06:12:58,0.018,0.0,0.005,0.0
07/04/2023,06:13:58,0.020,0.0,0.006,0.001
07/04/2023,06:14:58,0.020,0.0,0.006,0.0
07/04/2023,06:15:58,0.021,0.0,0.006,0.0
07/04/2023,06:16:58,0.022,0.0,0.007,0.001
07/04/2023,06:17:58,0.022,0.0,0.007,0.0
07/04/2023,06:19:00,0.022,0.0,0.008,0.001
07/04/2023,06:19:58,0.024,0.0,0.008,0.0
07/04/2023,06:20:59,0.025,0.0,0.008,0.0
07/04/2023,06:21:58,0.025,0.0,0.009,0.001
07/04/2023,06:22:59,0.026,0.0,0.009,0.0
07/04/2023,06:23:58,0.027,0.0,0.01,0.001
07/04/2023,06:24:58,0.028,0.0,0.01,0.0
07/04/2023,06:25:58,0.029,0.0,0.011,0.001
07/04/2023,06:26:59,0.031,0.0,0.011,0.0
07/04/2023,06:27:58,0.032,0.0,0.012,0.001
07/04/2023,06:28:58,0.032,0.0,0.012,0.0
07/04/2023,06:29:58,0.032,0.0,0.013,0.001
07/04/2023,06:30:58,0.033,0.0,0.013,0.0
07/04/2023,06:31:58,0.035,0.0,0.014,0.001
07/04/2023,06:32:58,0.035,0.0,0.014,0.0
07/04/2023,06:33:58,0.037,0.0,0.015,0.001
07/04/2023,06:34:58,0.037,0.0,0.015,0.0
07/04/2023,06:35:58,0.038,0.0,0.016,0.001
07/04/2023,06:36:58,0.040,0.0,0.017,0.001
07/04/2023,06:37:58,0.042,0.0,0.017,0.0
07/04/2023,06:38:58,0.042,0.0,0.018,0.001
07/04/2023,06:39:57,0.043,0.0,0.019,0.001
07/04/2023,06:40:58,0.045,0.0,0.02,0.001
07/04/2023,06:41:58,0.045,0.0,0.02,0.0
07/04/2023,06:42:58,0.046,0.0,0.021,0.001
07/04/2023,06:43:58,0.048,0.0,0.022,0.001
07/04/2023,06:44:58,0.050,0.0,0.023,0.001
07/04/2023,06:45:58,0.050,0.0,0.023,0.0
07/04/2023,06:46:58,0.052,0.0,0.024,0.001
07/04/2023,06:47:58,0.053,0.0,0.025,0.001
07/04/2023,06:48:58,0.055,0.0,0.026,0.001
07/04/2023,06:49:58,0.056,0.0,0.027,0.001
07/04/2023,06:50:58,0.057,0.0,0.028,0.001
07/04/2023,06:51:58,0.059,0.0,0.029,0.001
07/04/2023,06:52:59,0.060,0.0,0.03,0.001
07/04/2023,06:53:58,0.062,0.0,0.031,0.001
07/04/2023,06:54:58,0.064,0.0,0.032,0.001
07/04/2023,06:55:58,0.064,0.0,0.033,0.001
07/04/2023,06:56:58,0.066,0.0,0.034,0.001
07/04/2023,06:57:59,0.068,0.0,0.035,0.001
07/04/2023,06:58:58,0.070,0.0,0.036,0.001
07/04/2023,06:59:58,0.073,0.0,0.038,0.002
07/04/2023,07:00:58,0.073,0.0,0.039,0.001
07/04/2023,07:01:58,0.075,0.0,0.04,0.001
07/04/2023,07:02:58,0.077,0.0,0.041,0.001
07/04/2023,07:03:58,0.079,0.0,0.043,0.002
07/04/2023,07:04:58,0.080,0.0,0.044,0.001
07/04/2023,07:05:58,0.082,0.0,0.045,0.001
07/04/2023,07:06:58,0.084,0.0,0.047,0.002
07/04/2023,07:07:58,0.086,0.0,0.048,0.001
07/04/2023,07:08:58,0.088,0.0,0.05,0.002
07/04/2023,07:09:58,0.090,0.0,0.051,0.001
07/04/2023,07:10:58,0.092,0.0,0.053,0.002
07/04/2023,07:11:58,0.093,0.0,0.054,0.001
07/04/2023,07:12:58,0.096,0.0,0.056,0.002
07/04/2023,07:13:58,0.098,0.0,0.057,0.001
07/04/2023,07:14:58,0.101,0.0,0.059,0.002
07/04/2023,07:15:58,0.103,0.0,0.061,0.002
07/04/2023,07:16:58,0.105,0.0,0.062,0.001
07/04/2023,07:17:58,0.107,0.0,0.064,0.002
07/04/2023,07:18:58,0.110,0.0,0.066,0.002
07/04/2023,07:19:58,0.113,0.0,0.068,0.002
07/04/2023,07:20:58,0.114,0.0,0.07,0.002
07/04/2023,07:21:58,0.117,0.0,0.072,0.002
07/04/2023,07:22:58,0.119,0.0,0.074,0.002
07/04/2023,07:23:58,0.121,0.0,0.076,0.002
07/04/2023,07:24:58,0.125,0.0,0.078,0.002
07/04/2023,07:25:58,0.127,0.0,0.08,0.002
07/04/2023,07:26:59,0.131,0.0,0.082,0.002
07/04/2023,07:27:58,0.133,0.0,0.084,0.002
07/04/2023,07:28:58,0.136,0.0,0.086,0.002
07/04/2023,07:29:58,0.139,0.0,0.089,0.003
07/04/2023,07:30:58,0.141,0.0,0.091,0.002
07/04/2023,07:32:02,0.144,0.0,0.094,0.003
07/04/2023,07:32:59,0.146,0.0,0.096,0.002
07/04/2023,07:33:59,0.148,0.0,0.098,0.002
07/04/2023,07:34:58,0.151,0.0,0.101,0.003
07/04/2023,07:35:58,0.155,0.0,0.103,0.002
07/04/2023,07:36:58,0.158,0.0,0.106,0.003
07/04/2023,07:37:58,0.161,0.0,0.108,0.002
07/04/2023,07:38:58,0.164,0.0,0.111,0.003
07/04/2023,07:39:58,0.166,0.0,0.114,0.003
07/04/2023,07:40:59,0.170,0.0,0.117,0.003
07/04/2023,07:41:58,0.174,0.0,0.12,0.003
07/04/2023,07:42:58,0.177,0.0,0.123,0.003
07/04/2023,07:43:58,0.179,0.0,0.126,0.003
07/04/2023,07:44:58,0.183,0.0,0.129,0.003
07/04/2023,07:45:58,0.186,0.0,0.132,0.003
07/04/2023,07:46:58,0.188,0.0,0.135,0.003
07/04/2023,07:47:59,0.191,0.0,0.138,0.003
07/04/2023,07:48:59,0.195,0.0,0.141,0.003
07/04/2023,07:49:58,0.200,0.0,0.144,0.003
07/04/2023,07:50:58,0.200,0.0,0.148,0.004
07/04/2023,07:51:58,0.205,0.0,0.151,0.003
07/04/2023,07:52:58,0.209,0.0,0.155,0.004
07/04/2023,07:53:58,0.212,0.0,0.158,0.003
07/04/2023,07:54:58,0.214,0.0,0.162,0.004
07/04/2023,07:55:58,0.219,1.0,0.165,0.003
07/04/2023,07:56:58,0.223,1.0,0.169,0.004
07/04/2023,07:57:58,0.226,1.0,0.173,0.004
07/04/2023,07:58:58,0.230,1.0,0.177,0.004
07/04/2023,07:59:58,0.235,1.0,0.18,0.003
07/04/2023,08:00:59,0.238,1.0,0.184,0.004
07/04/2023,08:01:59,0.241,1.0,0.188,0.004
07/04/2023,08:02:59,0.245,1.0,0.192,0.004
07/04/2023,08:03:59,0.249,1.0,0.196,0.004
07/04/2023,08:04:58,0.253,1.0,0.201,0.005
07/04/2023,08:05:59,0.257,1.0,0.205,0.004
07/04/2023,08:06:59,0.261,1.0,0.209,0.004
07/04/2023,08:07:58,0.265,1.0,0.214,0.005
07/04/2023,08:08:58,0.270,1.0,0.218,0.004
07/04/2023,08:09:58,0.274,1.0,0.223,0.005
07/04/2023,08:10:58,0.277,1.0,0.227,0.004
07/04/2023,08:11:58,0.282,1.0,0.232,0.005
07/04/2023,08:12:59,0.285,1.0,0.237,0.005
07/04/2023,08:13:58,0.290,1.0,0.241,0.004
07/04/2023,08:14:59,0.294,1.0,0.246,0.005
07/04/2023,08:15:59,0.299,1.0,0.251,0.005
07/04/2023,08:16:58,0.302,1.0,0.256,0.005
07/04/2023,08:17:58,0.306,1.0,0.261,0.005
07/04/2023,08:18:58,0.311,1.0,0.266,0.005
07/04/2023,08:19:58,0.315,1.0,0.272,0.006
07/04/2023,08:20:58,0.321,1.0,0.277,0.005
07/04/2023,08:21:58,0.325,1.0,0.282,0.005
07/04/2023,08:22:59,0.331,1.0,0.288,0.006
07/04/2023,08:23:58,0.336,1.0,0.293,0.005
07/04/2023,08:24:58,0.340,1.0,0.299,0.006
07/04/2023,08:25:58,0.344,1.0,0.305,0.006
07/04/2023,08:26:58,0.348,1.0,0.31,0.005
07/04/2023,08:27:58,0.353,1.0,0.316,0.006
07/04/2023,08:28:58,0.358,1.0,0.322,0.006
07/04/2023,08:29:58,0.364,1.0,0.328,0.006
07/04/2023,08:30:58,0.368,1.0,0.334,0.006
07/04/2023,08:31:59,0.373,1.0,0.34,0.006
07/04/2023,08:32:59,0.377,1.0,0.347,0.007
07/04/2023,08:33:59,0.382,1.0,0.353,0.006
07/04/2023,08:34:59,0.385,1.0,0.359,0.006
07/04/2023,08:35:58,0.392,1.0,0.366,0.007
07/04/2023,08:36:58,0.398,1.0,0.373,0.007
07/04/2023,08:37:59,0.402,1.0,0.379,0.006
07/04/2023,08:38:58,0.407,1.0,0.386,0.007
07/04/2023,08:39:58,0.413,1.0,0.393,0.007
07/04/2023,08:40:58,0.418,1.0,0.4,0.007
07/04/2023,08:41:58,0.422,1.0,0.407,0.007
07/04/2023,08:42:58,0.428,1.0,0.414,0.007
07/04/2023,08:43:59,0.433,1.0,0.421,0.007
07/04/2023,08:44:58,0.440,1.0,0.428,0.007
07/04/2023,08:45:59,0.445,1.0,0.436,0.008
07/04/2023,08:46:59,0.451,1.0,0.443,0.007
07/04/2023,08:47:58,0.456,1.0,0.451,0.008
07/04/2023,08:48:58,0.460,1.0,0.458,0.007
07/04/2023,08:49:58,0.467,1.0,0.466,0.008
07/04/2023,08:50:58,0.473,1.0,0.474,0.008
07/04/2023,08:51:59,0.479,1.0,0.482,0.008
07/04/2023,08:52:58,0.483,1.0,0.49,0.008
07/04/2023,08:53:59,0.489,1.0,0.498,0.008
07/04/2023,08:54:59,0.494,1.0,0.506,0.008
07/04/2023,08:55:59,0.501,1.0,0.514,0.008
07/04/2023,08:56:59,0.506,1.0,0.523,0.009
07/04/2023,08:57:59,0.512,1.0,0.531,0.008
07/04/2023,08:58:58,0.518,1.0,0.54,0.009
07/04/2023,08:59:58,0.522,1.0,0.548,0.008
07/04/2023,09:00:58,0.528,1.0,0.557,0.009
07/04/2023,09:01:59,0.535,1.0,0.566,0.009
07/04/2023,09:02:58,0.540,1.0,0.575,0.009
07/04/2023,09:03:58,0.544,1.0,0.584,0.009
07/04/2023,09:04:58,0.551,1.0,0.593,0.009
07/04/2023,09:05:58,0.559,1.0,0.602,0.009
07/04/2023,09:06:58,0.562,1.0,0.612,0.01
07/04/2023,09:07:58,0.570,1.0,0.621,0.009
07/04/2023,09:08:59,0.575,1.0,0.631,0.01
07/04/2023,09:09:58,0.579,1.0,0.64,0.009
07/04/2023,09:10:59,0.586,1.0,0.65,0.01
07/04/2023,09:11:58,0.592,1.0,0.66,0.01
07/04/2023,09:12:59,0.597,1.0,0.67,0.01
07/04/2023,09:13:58,0.604,1.0,0.68,0.01
07/04/2023,09:14:58,0.608,1.0,0.69,0.01
07/04/2023,09:15:59,0.617,1.0,0.7,0.01
07/04/2023,09:16:58,0.621,1.0,0.71,0.01
07/04/2023,09:17:58,0.626,1.0,0.721,0.011
07/04/2023,09:18:58,0.631,1.0,0.731,0.01
07/04/2023,09:20:00,0.638,1.0,0.742,0.011
07/04/2023,09:20:59,0.646,1.0,0.753,0.011
07/04/2023,09:21:58,0.650,1.0,0.763,0.01
07/04/2023,09:22:58,0.655,2.0,0.774,0.011
07/04/2023,09:23:58,0.659,2.0,0.785,0.011
07/04/2023,09:24:58,0.665,2.0,0.796,0.011
07/04/2023,09:25:59,0.672,2.0,0.807,0.011
07/04/2023,09:26:59,0.678,2.0,0.819,0.012
07/04/2023,09:27:59,0.683,2.0,0.83,0.011
07/04/2023,09:28:59,0.690,2.0,0.841,0.011
07/04/2023,09:29:58,0.695,2.0,0.853,0.012
07/04/2023,09:30:58,0.702,2.0,0.865,0.012
07/04/2023,09:31:58,0.708,2.0,0.876,0.011
07/04/2023,09:32:58,0.714,2.0,0.888,0.012
07/04/2023,09:33:58,0.719,2.0,0.9,0.012
07/04/2023,09:34:59,0.723,2.0,0.912,0.012
07/04/2023,09:35:59,0.730,2.0,0.924,0.012
07/04/2023,09:36:59,0.735,2.0,0.936,0.012
07/04/2023,09:37:59,0.742,2.0,0.949,0.013
07/04/2023,09:38:59,0.749,2.0,0.961,0.012
07/04/2023,09:39:58,0.756,2.0,0.974,0.013
07/04/2023,09:40:59,0.762,2.0,0.986,0.012
07/04/2023,09:41:58,0.768,2.0,0.999,0.013
07/04/2023,09:42:58,0.771,2.0,1.012,0.013
07/04/2023,09:43:58,0.776,2.0,1.025,0.013
07/04/2023,09:44:58,0.784,2.0,1.038,0.013
07/04/2023,09:45:58,0.791,2.0,1.051,0.013
07/04/2023,09:46:59,0.793,2.0,1.064,0.013
07/04/2023,09:47:59,0.802,2.0,1.077,0.013
07/04/2023,09:48:58,0.806,2.0,1.091,0.014
07/04/2023,09:49:58,0.811,2.0,1.104,0.013
07/04/2023,09:50:58,0.817,2.0,1.118,0.014
07/04/2023,09:51:58,0.823,2.0,1.132,0.014
07/04/2023,09:52:59,0.831,2.0,1.145,0.013
07/04/2023,09:53:58,0.837,2.0,1.159,0.014
07/04/2023,09:54:58,0.843,2.0,1.173,0.014
07/04/2023,09:55:58,0.849,2.0,1.187,0.014
07/04/2023,09:56:58,0.854,2.0,1.202,0.015
07/04/2023,09:57:59,0.860,2.0,1.216,0.014
07/04/2023,09:58:59,0.866,2.0,1.23,0.014
07/04/2023,09:59:58,0.868,2.0,1.245,0.015
07/04/2023,10:00:58,0.875,2.0,1.259,0.014
07/04/2023,10:01:58,0.881,2.0,1.274,0.015
07/04/2023,10:02:58,0.886,2.0,1.288,0.014
07/04/2023,10:03:58,0.893,2.0,1.303,0.015
07/04/2023,10:04:59,0.899,2.0,1.318,0.015
07/04/2023,10:05:59,0.904,2.0,1.333,0.015
07/04/2023,10:06:58,0.911,2.0,1.348,0.015
07/04/2023,10:07:58,0.912,2.0,1.364,0.016